;� (mm);Q (m3/s)
;;
2/3/2014 12:00;0.00;7.49
2/3/2014 12:15;0.00;7.64
2/3/2014 12:30;0.00;7.47
2/3/2014 12:45;0.00;7.61
2/3/2014 13:00;0.00;7.50
2/3/2014 13:15;0.00;7.80
2/3/2014 13:30;0.00;7.15
2/3/2014 13:45;0.00;7.63
2/3/2014 14:00;0.00;7.10
2/3/2014 14:15;0.01;7.69
2/3/2014 14:30;0.13;7.06
2/3/2014 14:45;0.12;7.45
2/3/2014 15:00;0.13;7.48
2/3/2014 15:15;0.38;7.39
2/3/2014 15:30;0.40;7.97
2/3/2014 15:45;0.43;7.88
2/3/2014 16:00;0.25;7.99
2/3/2014 16:15;0.13;7.68
2/3/2014 16:30;0.05;7.78
2/3/2014 16:45;0.02;7.49
2/3/2014 17:00;0.00;8.10
2/3/2014 17:15;0.00;7.61
2/3/2014 17:30;0.00;7.40
2/3/2014 17:45;0.00;7.81
2/3/2014 18:00;0.00;7.75
2/3/2014 18:15;0.00;7.68
2/3/2014 18:30;0.00;8.01
2/3/2014 18:45;0.00;7.42
2/3/2014 19:00;0.00;7.71
2/3/2014 19:15;0.00;7.67
2/3/2014 19:30;0.04;7.68
2/3/2014 19:45;0.29;7.91
2/3/2014 20:00;0.24;7.96
2/3/2014 20:15;0.41;8.01
2/3/2014 20:30;0.17;8.04
2/3/2014 20:45;0.13;8.16
2/3/2014 21:00;0.18;7.91
2/3/2014 21:15;0.31;7.43
2/3/2014 21:30;0.56;8.03
2/3/2014 21:45;1.15;7.95
2/3/2014 22:00;1.11;7.90
2/3/2014 22:15;1.14;7.81
2/3/2014 22:30;0.11;8.15
2/3/2014 22:45;0.01;8.06
2/3/2014 23:00;0.13;7.84
2/3/2014 23:15;0.04;8.12
2/3/2014 23:30;0.17;7.46
2/3/2014 23:45;0.00;7.65
3/3/2014 00:00;0.00;7.14
3/3/2014 00:15;0.00;7.65
3/3/2014 00:30;0.00;6.74
3/3/2014 00:45;0.00;7.36
3/3/2014 01:00;0.12;6.84
3/3/2014 01:15;0.00;7.47
3/3/2014 01:30;0.00;7.52
3/3/2014 01:45;0.53;7.53
3/3/2014 02:00;2.81;8.00
3/3/2014 02:15;6.28;8.44
3/3/2014 02:30;3.53;8.06
3/3/2014 02:45;3.33;8.28
3/3/2014 03:00;2.04;7.56
3/3/2014 03:15;1.23;8.44
3/3/2014 03:30;0.30;8.09
3/3/2014 03:45;1.04;7.88
3/3/2014 04:00;1.64;7.97
3/3/2014 04:15;1.31;8.57
3/3/2014 04:30;0.84;8.42
3/3/2014 04:45;0.28;8.78
3/3/2014 05:00;0.20;8.94
3/3/2014 05:15;0.09;9.73
3/3/2014 05:30;0.34;10.60
3/3/2014 05:45;0.00;11.38
3/3/2014 06:00;0.00;10.23
3/3/2014 06:15;0.06;10.93
3/3/2014 06:30;1.22;10.68
3/3/2014 06:45;1.96;11.20
3/3/2014 07:00;1.29;10.49
3/3/2014 07:15;0.56;10.87
3/3/2014 07:30;0.32;11.17
3/3/2014 07:45;0.11;11.36
3/3/2014 08:00;0.33;11.61
3/3/2014 08:15;0.21;11.66
3/3/2014 08:30;0.40;12.36
3/3/2014 08:45;1.12;11.41
3/3/2014 09:00;1.36;11.71
3/3/2014 09:15;1.54;11.10
3/3/2014 09:30;2.09;11.46
3/3/2014 09:45;0.78;13.01
3/3/2014 10:00;0.92;12.01
3/3/2014 10:15;0.24;12.66
3/3/2014 10:30;0.21;11.61
3/3/2014 10:45;0.05;11.51
3/3/2014 11:00;0.17;13.60
3/3/2014 11:15;0.21;11.44
3/3/2014 11:30;0.27;12.08
3/3/2014 11:45;0.60;11.52
3/3/2014 12:00;0.68;13.35
3/3/2014 12:15;1.76;12.94
3/3/2014 12:30;1.57;12.21
3/3/2014 12:45;0.78;14.98
3/3/2014 13:00;2.42;13.59
3/3/2014 13:15;1.32;12.53
3/3/2014 13:30;0.24;14.00
3/3/2014 13:45;0.24;11.82
3/3/2014 14:00;0.07;13.41
3/3/2014 14:15;0.07;13.55
3/3/2014 14:30;0.00;15.67
3/3/2014 14:45;0.07;12.47
3/3/2014 15:00;0.00;13.39
3/3/2014 15:15;0.00;13.57
3/3/2014 15:30;0.00;15.33
3/3/2014 15:45;0.00;13.88
3/3/2014 16:00;0.00;17.43
3/3/2014 16:15;0.00;13.64
3/3/2014 16:30;0.11;14.36
3/3/2014 16:45;0.12;13.63
3/3/2014 17:00;0.19;12.68
3/3/2014 17:15;0.28;13.41
3/3/2014 17:30;0.00;11.33
3/3/2014 17:45;0.00;13.48
3/3/2014 18:00;0.00;14.43
3/3/2014 18:15;0.00;12.30
3/3/2014 18:30;0.00;16.32
3/3/2014 18:45;0.00;14.95
3/3/2014 19:00;0.00;13.74
3/3/2014 19:15;0.00;14.07
3/3/2014 19:30;0.00;14.25
3/3/2014 19:45;0.00;13.84
3/3/2014 20:00;0.00;12.85
3/3/2014 20:15;0.02;14.25
3/3/2014 20:30;0.11;12.80
3/3/2014 20:45;0.03;14.50
3/3/2014 21:00;0.00;13.52
3/3/2014 21:15;0.00;12.57
3/3/2014 21:30;0.00;13.73
3/3/2014 21:45;0.00;12.27
3/3/2014 22:00;0.00;11.39
3/3/2014 22:15;0.40;12.42
3/3/2014 22:30;0.55;12.45
3/3/2014 22:45;0.50;12.28
3/3/2014 23:00;0.30;12.98
3/3/2014 23:15;0.23;12.12
3/3/2014 23:30;0.50;13.37
3/3/2014 23:45;0.98;11.19
4/3/2014 00:00;0.78;12.33
4/3/2014 00:15;0.63;12.37
4/3/2014 00:30;0.29;12.24
4/3/2014 00:45;0.32;12.15
4/3/2014 01:00;0.27;12.38
4/3/2014 01:15;0.00;12.02
4/3/2014 01:30;0.00;11.58
4/3/2014 01:45;0.00;12.86
4/3/2014 02:00;0.00;13.23
4/3/2014 02:15;0.09;13.27
4/3/2014 02:30;0.03;13.78
4/3/2014 02:45;0.00;12.44
4/3/2014 03:00;0.04;12.35
4/3/2014 03:15;0.00;11.54
4/3/2014 03:30;0.00;12.53
4/3/2014 03:45;0.00;11.79
4/3/2014 04:00;0.00;12.13
4/3/2014 04:15;0.00;12.58
4/3/2014 04:30;0.00;10.30
4/3/2014 04:45;0.00;10.92
4/3/2014 05:00;0.00;11.23
4/3/2014 05:15;0.00;10.61
4/3/2014 05:30;0.00;11.76
4/3/2014 05:45;0.00;11.50
4/3/2014 06:00;0.00;12.00
4/3/2014 06:15;0.00;12.78
4/3/2014 06:30;0.00;10.86
4/3/2014 06:45;0.00;11.09
4/3/2014 07:00;0.00;11.28
4/3/2014 07:15;0.00;11.17
4/3/2014 07:30;0.00;11.06
4/3/2014 07:45;0.00;10.35
4/3/2014 08:00;0.00;10.27
4/3/2014 08:15;0.00;10.28
4/3/2014 08:30;0.00;10.47
4/3/2014 08:45;0.00;10.41
4/3/2014 09:00;0.00;9.26
4/3/2014 09:15;0.00;9.86
4/3/2014 09:30;0.00;9.35
4/3/2014 09:45;0.00;8.91
4/3/2014 10:00;0.00;10.66
4/3/2014 10:15;0.00;9.61
4/3/2014 10:30;0.00;10.67
4/3/2014 10:45;0.00;9.62
4/3/2014 11:00;0.00;9.59
4/3/2014 11:15;0.00;9.66
